User: anonymous   Login
Location: Writing-on-Stone Provincial Park
(49.0825°N, 111.6163°W)
Time: 03:23:13
(UTC-07:00)
Language:

BREEZE-M DEB (TANK) - Orbit

View from above orbital plane
View from above orbital plane
View from above satellite
View from above satellite

Ground track
Ground track

The orbit data is extracted from the following two-line orbital elements,

1 29649U 06056B   17055.07072294  .00002339  00000-0  49702-3 0  9998
2 29649  49.4909 316.3787 5376877  90.7814 328.0504  4.99251530182128
Epoch (UTC): 24 February 2017 01:41:50
Eccentricity: 0.5376877
inclination: 49.4909°
perigee height: 307 km
apogee height: 15858 km
right ascension of ascending node: 316.3787°
argument of perigee: 90.7814°
revolutions per day: 4.99251530
mean anomaly at epoch: 328.0504°
orbit number at epoch: 18212

The dashed part of the orbit path shows where the satellite is in the earth's shadow,  

DLR